Regional Weather Roundup
Issued by NWS

Home | Current Version | Previous Version | Text Only | Print | Product List | Glossary Off
Versions: 1 2 3 4 5 6 7 8 9 10 11 12 13 14 15 16 17 18 19 20 21 22 23 24 25 26 27 28 29 30 31 32 33 34 35 36 37 38 39 40 41 42 43 44 45 46 47 48 49 50

000
ASUS43 KMPX 181201
RWRMN
WEATHER ROUNDUP FOR MINNESOTA
NATIONAL WEATHER SERVICE TWIN CITIES/CHANHASSEN MN
700 AM CDT WED OCT 18 2017


NOTE: "FAIR" INDICATES FEW OR NO CLOUDS BELOW 12,000 FEET WITH NO
SIGNIFICANT WEATHER AND/OR OBSTRUCTIONS TO VISIBILITY. N/A MEANS
CURRENT SKY AND/OR WEATHER CONDITIONS ARE NOT AVAILABLE.

MNZ060>063-068>070-181300-
   Twin Cities Metro

CITY           SKY/WX    TMP DP  RH WIND       PRES   REMARKS
TWIN CITIES    PTCLDY    49  45  86 SE8       29.83F
6HR MIN TEMP:  48; 6HR MAX TEMP:  61;

ST PAUL        CLEAR     47  45  93 SE8       29.85F
CRYSTAL        CLEAR     49  42  77 SE9       29.79F
LAKEVILLE      CLEAR     48  45  87 S9        29.84F
EDEN PRAIRIE   CLEAR     52  45  77 S13       29.81F
6HR MIN TEMP:  51; 6HR MAX TEMP:  58;

SOUTH ST PAUL  CLEAR     48  44  84 CALM      29.84F
LAKE ELMO      FAIR      48  45  87 S9        29.84F
$$
MNZ001>005-007-008-013>017-022>024-027-028-181300-
   Northwest Minnesota

CITY           SKY/WX    TMP DP  RH WIND       PRES   REMARKS
BEMIDJI        CLEAR     53  39  59 SW8G21    29.63R
HALLOCK        CLOUDY    46  34  61 SW8       29.52R
ROSEAU         CLOUDY    57  41  54 SW14      29.51R
WARROAD        CLOUDY    57  41  54 SW9G17    29.51R
CROOKSTON      CLOUDY    52  39  62 SW10      29.62R
FOSSTON        CLOUDY    52  37  58 S9        29.64S
DETROIT LAKES  CLOUDY    55  41  58 W7G16     29.68R
MOORHEAD       CLOUDY    46  39  76 S7        29.68R
PARK RAPIDS    CLEAR     48  40  73 SE7       29.64F
MAHNOMEN       FAIR      50  40  67 S8        29.66R
$$
MNZ006-009>011-018-025>026-181300-
   North Central Minnesota

CITY           SKY/WX    TMP DP  RH WIND       PRES   REMARKS
BAUDETTE       CLOUDY    56  40  55 SW10      29.53R
FLAG ISLAND    CLOUDY    57  39  51 SW17G26   29.45S
INTL FALLS     CLOUDY    57  37  47 S10       29.52F
6HR MIN TEMP:  56; 6HR MAX TEMP:  59;

WASKISH        CLOUDY    59  39  47 SW10      29.58R
BIG FORK       CLEAR     54  39  58 S10       29.60F
LONGVILLE      CLEAR     54  41  62 S8        29.65F
GRAND RAPIDS   CLEAR     50  40  68 S8        29.68F
CRANE LAKE     CLEAR     54  37  54 S3        29.62F
ORR            CLEAR     54  36  50 S10       29.60F
COOK           CLEAR     54  39  58 S8        29.65F
WALKER         FAIR      55  40  57 SW12G18   29.61F
$$
MNZ012-019>021-037-181300-
   Northeast Minnesota

CITY           SKY/WX    TMP DP  RH WIND       PRES   REMARKS
DULUTH         CLEAR     53  43  68 SW17      29.73F
6HR MIN TEMP:  51; 6HR MAX TEMP:  56;

ELY            CLOUDY    59  36  41 S8        29.68S
HIBBING        CLEAR     45  38  76 CALM      29.70S
EVELETH        CLEAR     50  42  74 SW6       29.71S
DULUTH HARBOR  CLEAR     52  46  82 W7        29.75F
TWO HARBORS    CLEAR     46  43  87 W3        29.73F
SILVER BAY     CLEAR     37  37 100 CALM      29.72F
GRAND MARAIS     N/A     43  42  97 N3        29.74F
G MARAIS ARPRT CLEAR     48  39  71 S7        29.74F
$$
MNZ029>031-032-039>041-046>048-054>057-064-181300-
   West Central Minnesota

CITY           SKY/WX    TMP DP  RH WIND       PRES   REMARKS
FERGUS FALLS   CLEAR     52  43  71 S10       29.67S
WHEATON        CLOUDY    54  39  58 S10G18    29.66F
MORRIS         CLEAR     46  43  87 S12       29.69S
ALEXANDRIA     CLEAR     54  43  66 S16       29.71F
ELBOW LAKE     FAIR      48  43  81 S13       29.68F
WADENA         CLEAR     46  41  81 S5        29.66F
GLENWOOD       CLEAR     54  43  66 S13       29.71F
APPLETON       CLOUDY    54  43  66 S6        29.70S
BENSON         CLOUDY    48  43  81 SW7       29.72S
ORTONVILLE     CLEAR     52  41  66 NW5       29.70R
MADISON        CLEAR     57  45  62 S9        29.70F
WILLMAR        FAIR      52  45  76 S7        29.74F
$$
MNZ033>034-036-042>043-049>051-058-059-181300-
   Central Minnesota

CITY           SKY/WX    TMP DP  RH WIND       PRES   REMARKS
ST CLOUD       CLEAR     49  45  86 S9        29.76F
6HR MIN TEMP:  45; 6HR MAX TEMP:  53;

SAUK CENTRE    FAIR      48  42  79 CALM      29.72F
PAYNESVILLE    CLEAR     52  45  76 S14       29.74F
AITKIN         CLEAR     52  41  66 S9G16     29.69F
PINE RIVER     CLEAR     43  37  81 SE7       29.71F
BRAINERD       CLEAR     52  41  66 S12       29.70F
STAPLES        CLEAR     52  41  66 S10       29.67F
LONG PRAIRIE   FAIR      52  41  66 SE8       29.71F
LITTLE FALLS   CLEAR     48  36  61 SE6       29.73S
LITCHFIELD     CLEAR     50  46  87 SE6       29.77
BUFFALO        CLEAR     50  43  78 S6        29.79F
MAPLE LAKE     CLEAR     49  46  87 S6        29.78F
HUTCHINSON     CLOUDY    47  45  90 SE5       29.79F
$$
MNZ037-044-045-052-053-181300-
   East Central Minnesota

CITY           SKY/WX    TMP DP  RH WIND       PRES   REMARKS
PRINCETON      CLEAR     50  45  81 S7        29.78S
MORA           CLEAR     46  41  81 S5        29.79F
CAMBRIDGE      CLEAR     52  43  71 S8        29.78F
RUSH CITY      PTCLDY    48  44  85 S8        29.79F
MOOSE LAKE     CLEAR     46  43  87 S6        29.74F
HINCKLEY       FAIR      48  45  87 S7        29.78F
CLOQUET        CLEAR     50  41  71 S9        29.73F
MCGREGOR       CLEAR     48  41  76 S7        29.73S
$$
MNZ071>073-080-081-089-090-097-098-181300-
   Southwest Minnesota

CITY           SKY/WX    TMP DP  RH WIND       PRES   REMARKS
MONTEVIDEO     CLOUDY    52  43  71 SW10      29.72S
GRANITE FALLS  CLEAR     52  46  78 S9        29.74F
CANBY          CLEAR     60  43  53 SW13G21   29.71F
MARSHALL       CLEAR     55  44  66 SW14      29.73F
REDWOOD FALLS  CLEAR     49  42  77 S12       29.76F
OLIVIA         CLEAR     50  45  81 SE12      29.74F
PIPESTONE      CLEAR     48  43  81 S7        29.77F
WORTHINGTON    CLEAR     51  45  79 S10       29.82F
JACKSON        CLEAR     46  43  87 S12       29.84F
TRACY          CLEAR     56  47  71 S17G23    29.76F
SLAYTON        CLEAR     50  38  62 S9        29.80F
$$
MNZ065>067-074>077-082>085-091>093-181300-
   South Central Minnesota

CITY           SKY/WX    TMP DP  RH WIND       PRES   REMARKS
MANKATO        CLEAR     48  44  86 S9        29.85F
NEW ULM          N/A     46  43  87 S12       29.80F
ST JAMES       CLEAR     46  43  87 S13       29.84F
FAIRMONT       CLEAR     45  43  93 S12       29.87S
GLENCOE        CLEAR     49  45  84 S7        29.80F
FARIBAULT      CLEAR     48  45  87 S7        29.87F
OWATONNA       CLEAR     48  45  87 S16       29.87F
WASECA         CLEAR     50  45  81 S6        29.88F
ALBERT LEA     CLEAR     52  46  82 S8        29.90F
$$
MNZ078>079-086>088-094>096-181300-
   Southeast Minnesota

CITY           SKY/WX    TMP DP  RH WIND       PRES   REMARKS
ROCHESTER      CLEAR     47  44  90 S14       29.93S
6HR MIN TEMP:  47; 6HR MAX TEMP:  51;

RED WING       CLEAR     50  43  76 SE7       29.87F
STANTON        CLEAR     50  45  80 S9        29.84F
DODGE CENTER   CLEAR     48  43  81 S12       29.90F
WINONA         CLEAR     50  45  81 SE7       29.94S
AUSTIN         CLEAR     46  43  87 S8        29.92F
PRESTON        CLEAR     47  43  84 S13       29.95S
$$
ABBREVIATIONS USED IN REMARKS
   TC - TEMPERATURES IN CELSIUS
  WCI - WIND CHILL INDEX
   HX - HEAT INDEX
  VSB - VISIBILITY
$$




USA.gov is the U.S. government's official web portal to all federal, state and local government web resources and services.